Content
SEND FEEDBACK

Daily
Averages
Monthly
Summary
United States of America

HAZELWOOD, MISSOURI


Home > North America > United States > Missouri
Elevation: 570 feet     Latitude: 38 45N     Longitude: 090 22W

WEATHER
 
SELECT A DAY
Number of Records: 196,291;   Date Range: 1/1/95 - 7/22/14
 
SHARE

PRINT THIS DATA

[ ← Previous Day ]
WEATHER ALMANAC - JANUARY 5, 2013
[ Next Day → ]
[ °C ]   °F
Weather ElementAverageHighLow
Temperature36.2 °F45 °F (12:54 pm)21 °F (2:54 am)
Dewpoint24.3 °F30 °F (11:54 pm)16 °F (2:54 am)
Humidity63.8 %85 % (1:54 am)46 % (12:54 pm)
Barometer30.24 in30.34 in (1:54 am)30.12 in (11:54 pm)
Wind Speed5 mph12.7 mph (11:54 pm)
Wind Gust19.6 mph (11:54 pm)
Weather ElementAverage
Visibility10 mi
Wind DirectionSSE (141.3 °)

Weather ElementTotal
Precipitation---
Heating Degree Days32 (Base 65)
Averaged from 23 records on January 5, 2013
WEATHER CONDITIONS BREAKOUT
WIND DIRECTION BREAKOUT
WEATHER BY HOUR - JANUARY 5, 2013
[ °C ]   °F
Local TimeTemperatureDewpointHumidityBarometerVisibilityWind DirectionWind SpeedGust SpeedPrecipitationEventsConditions
1:54 AM21.9 °F18.0 °F85 %30.34 in10.0 miCalmClear
2:54 AM21.0 °F16.0 °F81 %30.32 in10.0 miCalmClear
3:54 AM21.0 °F17.1 °F85 %30.31 in10.0 miCalmClear
4:54 AM21.0 °F16.0 °F81 %30.32 in10.0 miCalmClear
5:54 AM24.1 °F18.0 °F77 %30.32 in10.0 miCalmClear
6:54 AM27.0 °F21.0 °F78 %30.32 in10.0 miCalmClear
7:54 AM27.0 °F23.0 °F85 %30.33 in10.0 miCalmPartly Cloudy
8:54 AM30.9 °F26.1 °F82 %30.33 in10.0 miCalmOvercast
9:54 AM37.0 °F24.1 °F59 %30.34 in10.0 miSW (230°)9.2 mphOvercast
10:54 AM39.9 °F27.0 °F60 %30.30 in10.0 miWSW (240°)10.4 mphScattered Clouds
11:54 AM42.1 °F27.0 °F55 %30.25 in10.0 miWSW (240°)4.6 mphOvercast
12:54 PM45.0 °F25.0 °F46 %30.21 in10.0 miSSW (210°)8.1 mphOvercast
1:54 PM45.0 °F26.1 °F48 %30.17 in10.0 miSouth (170°)9.2 mphMostly Cloudy
2:54 PM45.0 °F26.1 °F48 %30.18 in10.0 miSW (230°)10.4 mphOvercast
3:54 PM44.1 °F27.0 °F51 %30.17 in10.0 miSSW (210°)4.6 mph16.1 mphOvercast
4:54 PM43.0 °F27.0 °F53 %30.17 in10.0 miSSW (200°)3.5 mphOvercast
5:54 PM42.1 °F27.0 °F55 %30.18 in10.0 miSSW (210°)3.5 mphOvercast
6:54 PM42.1 °F27.0 °F55 %30.18 in10.0 miSSW (210°)8.1 mphOvercast
7:54 PM43.0 °F26.1 °F51 %30.17 in10.0 miSSW (200°)6.9 mphOvercast
8:54 PM43.0 °F27.0 °F53 %30.15 in10.0 miSSW (210°)8.1 mphOvercast
9:54 PM42.1 °F28.0 °F58 %30.15 in10.0 miWSW (240°)6.9 mphOvercast
10:54 PM42.1 °F28.9 °F60 %30.14 in10.0 miSW (220°)9.2 mphOvercast
11:54 PM42.1 °F30.0 °F62 %30.12 in10.0 miSW (230°)12.7 mph19.6 mphOvercast
Hourly data recorded from KSUS, located miles away from Hazelwood, Missouri







STORIES FROM OUR PARTNERS